Tracking 28052 objects as of 24-Sep-2023
HD Live streaming from Space Station
objects crossing your sky now

STARLINK-6148

Track STARLINK-6148 now!
10-day predictions
STARLINK-6148 is classified as:


NORAD ID: 57117
Int'l Code: 2023-090S
Perigee: 565.7 km
Apogee: 566.8 km
Inclination: 43.0 °
Period: 95.8 minutes
Semi major axis: 6937 km
RCS: Unknown
Launch date: June 23, 2023
Source: United States (US)
Launch site: AIR FORCE EASTERN TEST RANGE (AFETR)
Your satellite tracking list
Your tracking list is empty




NASA's NSSDC Master Catalog

Two Line Element Set (TLE):
1 57117U 23090S   23266.03447803  .00001872  00000-0  15360-3 0  9999
2 57117  43.0009 117.5746 0000822 283.3418  76.7333 15.02533129 15232
Source of the keplerian elements: AFSPC